TimeCDT,TemperatureF,Dew PointF,Humidity,Sea Level PressureIn,VisibilityMPH,Wind Direction,Wind SpeedMPH,Gust SpeedMPH,PrecipitationIn,Events,Conditions,WindDirDegrees,DateUTC
12:15 AM,55.4,41.0,58,30.09,10.0,South,3.5,-,N/A,,Clear,170,2013-05-14 05:15:00
12:35 AM,55.4,39.2,54,30.09,10.0,Calm,Calm,-,N/A,,Clear,0,2013-05-14 05:35:00
12:55 AM,55.4,39.2,54,30.08,10.0,South,3.5,-,N/A,,Clear,180,2013-05-14 05:55:00
1:15 AM,55.4,41.0,58,30.08,10.0,SSE,3.5,-,N/A,,Clear,160,2013-05-14 06:15:00
1:35 AM,55.4,41.0,58,30.07,10.0,Calm,Calm,-,N/A,,Clear,0,2013-05-14 06:35:00
1:55 AM,53.6,42.8,67,30.07,10.0,SSE,4.6,-,N/A,,Clear,150,2013-05-14 06:55:00
2:15 AM,53.6,42.8,67,30.06,10.0,Calm,Calm,-,N/A,,Clear,0,2013-05-14 07:15:00
2:35 AM,53.6,42.8,67,30.06,10.0,SSE,3.5,-,N/A,,Clear,150,2013-05-14 07:35:00
2:55 AM,53.6,42.8,67,30.05,10.0,South,4.6,-,N/A,,Clear,170,2013-05-14 07:55:00
3:15 AM,53.6,42.8,67,30.05,10.0,South,4.6,-,N/A,,Clear,170,2013-05-14 08:15:00
3:35 AM,53.6,42.8,67,30.04,10.0,Calm,Calm,-,N/A,,Clear,0,2013-05-14 08:35:00
3:55 AM,53.6,42.8,67,30.03,10.0,SSE,3.5,-,N/A,,Clear,160,2013-05-14 08:55:00
4:15 AM,53.6,44.6,72,30.03,10.0,SSE,3.5,-,N/A,,Clear,160,2013-05-14 09:15:00
4:35 AM,53.6,44.6,72,30.02,10.0,SSE,5.8,-,N/A,,Clear,160,2013-05-14 09:35:00
4:55 AM,55.4,42.8,63,30.02,10.0,SSE,8.1,-,N/A,,Clear,160,2013-05-14 09:55:00
5:15 AM,55.4,44.6,67,30.02,10.0,South,5.8,-,N/A,,Clear,170,2013-05-14 10:15:00
5:35 AM,53.6,44.6,72,30.02,10.0,South,5.8,-,N/A,,Clear,170,2013-05-14 10:35:00
5:55 AM,53.6,44.6,72,30.02,10.0,South,8.1,-,N/A,,Clear,170,2013-05-14 10:55:00
6:15 AM,53.6,44.6,72,30.02,10.0,South,8.1,-,N/A,,Clear,170,2013-05-14 11:15:00
6:35 AM,55.4,46.4,72,30.02,10.0,South,6.9,-,N/A,,Clear,170,2013-05-14 11:35:00
6:55 AM,55.4,46.4,72,30.01,10.0,South,6.9,-,N/A,,Clear,170,2013-05-14 11:55:00
7:15 AM,57.2,46.4,67,30.01,10.0,South,8.1,-,N/A,,Clear,170,2013-05-14 12:15:00
7:35 AM,59.0,48.2,67,30.01,10.0,South,9.2,-,N/A,,Clear,180,2013-05-14 12:35:00
7:55 AM,60.8,50.0,68,30.00,10.0,South,9.2,-,N/A,,Clear,190,2013-05-14 12:55:00
8:15 AM,62.6,51.8,68,30.00,10.0,South,11.5,-,N/A,,Clear,190,2013-05-14 13:15:00
8:35 AM,62.6,53.6,72,29.99,10.0,South,11.5,-,N/A,,Clear,190,2013-05-14 13:35:00
8:55 AM,64.4,53.6,68,29.99,10.0,South,10.4,-,N/A,,Clear,190,2013-05-14 13:55:00
9:15 AM,66.2,55.4,68,29.98,10.0,SSW,11.5,-,N/A,,Clear,200,2013-05-14 14:15:00
9:35 AM,68.0,55.4,64,29.97,10.0,South,11.5,-,N/A,,Clear,190,2013-05-14 14:35:00
9:55 AM,69.8,57.2,64,29.96,10.0,South,10.4,-,N/A,,Clear,190,2013-05-14 14:55:00
10:15 AM,71.6,57.2,60,29.96,10.0,South,13.8,-,N/A,,Clear,190,2013-05-14 15:15:00
10:35 AM,73.4,57.2,57,29.95,10.0,South,12.7,-,N/A,,Clear,190,2013-05-14 15:35:00
10:55 AM,73.4,59.0,61,29.95,10.0,South,12.7,-,N/A,,Clear,190,2013-05-14 15:55:00
11:15 AM,75.2,59.0,57,29.94,10.0,SSW,13.8,-,N/A,,Clear,210,2013-05-14 16:15:00
11:35 AM,78.8,59.0,51,29.94,10.0,SW,11.5,17.3,N/A,,Clear,230,2013-05-14 16:35:00
11:55 AM,78.8,59.0,51,29.94,10.0,SW,11.5,19.6,N/A,,Clear,220,2013-05-14 16:55:00
12:15 PM,78.8,57.2,47,29.93,10.0,SSW,16.1,20.7,N/A,,Clear,210,2013-05-14 17:15:00
12:35 PM,78.8,59.0,51,29.93,10.0,SW,12.7,19.6,N/A,,Clear,220,2013-05-14 17:35:00
12:55 PM,80.6,59.0,48,29.92,10.0,SW,15.0,18.4,N/A,,Clear,220,2013-05-14 17:55:00
1:15 PM,80.6,59.0,48,29.91,10.0,SSW,12.7,17.3,N/A,,Clear,210,2013-05-14 18:15:00
1:35 PM,80.6,59.0,48,29.90,10.0,SSW,12.7,19.6,N/A,,Clear,210,2013-05-14 18:35:00
1:55 PM,82.4,59.0,45,29.90,10.0,SSW,12.7,21.9,N/A,,Clear,210,2013-05-14 18:55:00
2:15 PM,82.4,57.2,42,29.89,10.0,SW,15.0,20.7,N/A,,Clear,220,2013-05-14 19:15:00
2:35 PM,82.4,57.2,42,29.89,1.0,SSW,11.5,20.7,N/A,,Haze,210,2013-05-14 19:35:00
2:55 PM,84.2,57.2,40,29.89,10.0,SW,17.3,21.9,N/A,,Clear,220,2013-05-14 19:55:00
3:15 PM,84.2,57.2,40,29.88,10.0,SSW,16.1,20.7,N/A,,Clear,210,2013-05-14 20:15:00
3:35 PM,84.2,57.2,40,29.88,10.0,SW,12.7,21.9,N/A,,Clear,220,2013-05-14 20:35:00
3:55 PM,84.2,59.0,42,29.87,10.0,SW,13.8,21.9,N/A,,Clear,230,2013-05-14 20:55:00
4:15 PM,84.2,60.8,45,29.87,10.0,SW,11.5,-,N/A,,Clear,220,2013-05-14 21:15:00
4:35 PM,84.2,59.0,42,29.86,10.0,SSW,13.8,18.4,N/A,,Clear,210,2013-05-14 21:35:00
4:55 PM,84.2,60.8,45,29.86,10.0,SSW,10.4,-,N/A,,Clear,200,2013-05-14 21:55:00
5:15 PM,84.2,59.0,42,29.86,10.0,SSW,15.0,19.6,N/A,,Clear,210,2013-05-14 22:15:00
5:35 PM,84.2,59.0,42,29.86,10.0,SW,11.5,20.7,N/A,,Clear,220,2013-05-14 22:35:00
5:55 PM,84.2,60.8,45,29.85,10.0,SSW,10.4,16.1,N/A,,Clear,210,2013-05-14 22:55:00
6:15 PM,84.2,60.8,45,29.85,10.0,SW,12.7,17.3,N/A,,Clear,220,2013-05-14 23:15:00
6:35 PM,82.4,60.8,48,29.85,10.0,SSW,10.4,-,N/A,,Clear,200,2013-05-14 23:35:00
6:55 PM,82.4,62.6,51,29.84,10.0,SSW,8.1,-,N/A,,Clear,210,2013-05-14 23:55:00
7:15 PM,80.6,62.6,54,29.84,10.0,SSW,9.2,-,N/A,,Clear,210,2013-05-15 00:15:00
7:35 PM,80.6,62.6,54,29.84,10.0,SSW,8.1,-,N/A,,Clear,210,2013-05-15 00:35:00
7:55 PM,78.8,62.6,57,29.85,10.0,SSW,8.1,-,N/A,,Clear,210,2013-05-15 00:55:00
8:15 PM,78.8,62.6,57,29.85,10.0,SSW,6.9,-,N/A,,Clear,200,2013-05-15 01:15:00
8:35 PM,77.0,62.6,61,29.85,10.0,SSW,6.9,-,N/A,,Clear,200,2013-05-15 01:35:00
8:55 PM,75.2,62.6,65,29.85,10.0,SSW,8.1,-,N/A,,Clear,210,2013-05-15 01:55:00
9:15 PM,75.2,62.6,65,29.86,10.0,SSW,8.1,-,N/A,,Clear,210,2013-05-15 02:15:00
9:35 PM,75.2,62.6,65,29.87,10.0,SSW,8.1,-,N/A,,Clear,210,2013-05-15 02:35:00
9:55 PM,75.2,62.6,65,29.88,10.0,SSW,8.1,-,N/A,,Clear,210,2013-05-15 02:55:00
10:15 PM,73.4,62.6,69,29.88,10.0,SSW,8.1,-,N/A,,Clear,210,2013-05-15 03:15:00
10:35 PM,73.4,60.8,65,29.88,10.0,SSW,6.9,-,N/A,,Clear,210,2013-05-15 03:35:00
10:55 PM,73.4,62.6,69,29.88,10.0,SSW,6.9,-,N/A,,Clear,210,2013-05-15 03:55:00
11:15 PM,73.4,60.8,65,29.88,10.0,SSW,8.1,-,N/A,,Clear,210,2013-05-15 04:15:00
11:35 PM,73.4,60.8,65,29.88,10.0,SSW,8.1,-,N/A,,Clear,210,2013-05-15 04:35:00
11:55 PM,71.6,60.8,69,29.89,10.0,SSW,6.9,-,N/A,,Clear,210,2013-05-15 04:55:00